Location: Alderney
(49.7170°N, 2.2000°W)
Time: 22:37:34
(UTC+00:00)

Envisat - Visible Passes

Search period start: 13 December 2017 00:00
Search period end: 23 December 2017 00:00
Orbit: 764 x 766 km, 98.2° (Epoch: 13 December)

Date Brightness Start Highest point End Pass type
(mag) Time Alt. Az. Time Alt. Az. Time Alt. Az.
13 Dec 5.3 19:01:21 11° N 19:01:21 11° N 19:01:36 10° N visible
14 Dec 5.2 18:24:12 11° N 18:24:12 11° N 18:24:20 10° N visible
15 Dec 5.5 19:27:14 11° N 19:27:14 11° N 19:27:24 10° N visible
16 Dec 5.8 07:22:56 10° NE 07:26:05 16° E 07:29:12 10° SE visible
16 Dec 5.3 18:50:05 11° N 18:50:05 11° N 18:50:22 10° N visible
17 Dec 5.2 18:12:54 10° NNE 18:12:54 10° NNE 18:12:56 10° NNE visible
18 Dec 5.4 19:15:56 11° N 19:15:56 11° N 19:16:13 10° N visible
19 Dec 5.9 07:12:26 10° ENE 07:14:48 13° E 07:17:08 10° ESE visible
19 Dec 5.2 18:38:45 12° N 18:38:45 12° N 18:39:05 10° N visible
20 Dec 5.6 19:41:46 11° NNW 19:41:46 11° NNW 19:41:55 10° NNW visible
21 Dec 5.3 19:04:35 12° N 19:04:35 12° N 19:05:00 10° N visible
22 Dec 6.3 07:02:44 10° ENE 07:03:30 10° E 07:04:15 10° E visible
22 Dec 5.1 18:27:23 12° N 18:27:23 12° N 18:27:46 10° N visible
